Location: Bednik
(45.3500°N, 16.3833°E)
Time: 09:24:33
(UTC+00:00)

Cosmos 1153 Rocket - Pass Details

Date: 08 August 2020
Orbit: 954 x 1005 km, 82.9° (Epoch: 20 September)

Event Time Altitude Azimuth Distance (km) Brightness Sun altitude
Exits shadow 21:03:26 36° 197° (SSW) 1,464 5.1 -23.4°
Maximum altitude 21:06:06 79° 278° (W) 979 4.5 -23.6°
Drops below altitude 10° 21:12:19 10° 6° (N) 2,708 7.5 -24.1°
Sets 21:14:50 0° 8° (N) 3,664 8.3 -24.4°
